Вернуться в каталог

QIANFAN-114

АктивенСвязьPO
NORAD 68641·PAYLOAD·🇨🇳 China

Запущен Apr 7, 2026 с Wenchang Space Launch Site

Loading…

Ближайшие Пролёты (ближайшие 24 часа)

TLE

СвежийSource: Space-Track

Эпоха: Sep 14, 2026, 14:56 UTC

1 68641U 26075F   26257.62257341  .00000072  00000-0  92250-4 0  9998
2 68641  88.9872 311.8902 0002254  97.9189 262.2218 13.51027505 21879

Отслеживайте QIANFAN-114 в реальном времени с AllMySat

Download on the App Store